,,,PA_Meas_PMT16A,,PR_Meas_QMR101_102,,RH_Meas_QMH101,,SR_Meas_QMS101,,TA_Meas_QMH101,,GenWind,,GenWind,
date,time,status,PA,status,PR,status,RH,status,SR,status,TA,status,DirAvg,status,SpdAvg,
2009-06-28, 00:00:04,VALID,1004.11,VALID,0,VALID,90.7074,VALID,0,VALID,24.5972,VALID,347,VALID,0.341797,
2009-06-28, 00:01:04,VALID,1004.12,VALID,0,VALID,90.6311,VALID,0,VALID,24.5972,VALID,347,VALID,0.40625,
2009-06-28, 00:02:04,VALID,1004.11,VALID,0,VALID,90.6311,VALID,0,VALID,24.5972,VALID,347,VALID,0.483984,
2009-06-28, 00:03:04,VALID,1004.1,VALID,0,VALID,90.5472,VALID,0.100563,VALID,24.5777,VALID,347,VALID,0.408203,
2009-06-28, 00:04:04,VALID,1004.1,VALID,0,VALID,90.654,VALID,0.100563,VALID,24.5174,VALID,347,VALID,0.26875,
2009-06-28, 00:05:04,VALID,1004.12,VALID,0,VALID,90.593,VALID,0.100563,VALID,24.5212,VALID,347,VALID,0.373047,
2009-06-28, 00:06:04,VALID,1004.1,VALID,0,VALID,90.6845,VALID,0,VALID,24.422,VALID,347,VALID,0.21875,
2009-06-28, 00:07:04,VALID,1004.09,VALID,0,VALID,90.9591,VALID,0,VALID,24.383,VALID,347,VALID,0.3,
2009-06-28, 00:08:04,VALID,1004.09,VALID,0,VALID,91.1804,VALID,0.100563,VALID,24.383,VALID,347,VALID,0.344922,
2009-06-28, 00:09:04,VALID,1004.1,VALID,0,VALID,91.3864,VALID,0.100563,VALID,24.3849,VALID,347,VALID,0.227734,
2009-06-28, 00:10:04,VALID,1004.07,VALID,0,VALID,91.5389,VALID,0.100563,VALID,24.3441,VALID,347,VALID,0.267578,
2009-06-28, 00:11:04,VALID,1004.04,VALID,0,VALID,91.5084,VALID,0.100563,VALID,24.3246,VALID,347,VALID,0.273438,
2009-06-28, 00:12:04,VALID,1004.04,VALID,0,VALID,91.4932,VALID,0,VALID,24.3052,VALID,347,VALID,0.413281,
2009-06-28, 00:13:04,VALID,1004.02,VALID,0,VALID,91.5542,VALID,0,VALID,24.2273,VALID,347,VALID,0.295703,
2009-06-28, 00:14:04,VALID,1004.01,VALID,0,VALID,91.6839,VALID,0.100563,VALID,24.2078,VALID,347,VALID,0.2625,
2009-06-28, 00:15:04,VALID,1003.98,VALID,0,VALID,91.8059,VALID,0,VALID,24.1689,VALID,347,VALID,0.364453,
2009-06-28, 00:16:04,VALID,1003.97,VALID,0,VALID,91.9662,VALID,0.100563,VALID,24.1494,VALID,347,VALID,0.306641,
2009-06-28, 00:17:04,VALID,1003.96,VALID,0,VALID,92.0348,VALID,0,VALID,24.1105,VALID,347,VALID,0.302734,
2009-06-28, 00:18:04,VALID,1003.99,VALID,0,VALID,92.1798,VALID,0,VALID,24.091,VALID,347,VALID,0.430078,
2009-06-28, 00:19:04,VALID,1004,VALID,0,VALID,92.34,VALID,0,VALID,24.0716,VALID,347,VALID,0.312891,
2009-06-28, 00:20:04,VALID,1003.97,VALID,0,VALID,92.4773,VALID,0.100563,VALID,24.0716,VALID,347,VALID,0.402734,
2009-06-28, 00:21:04,VALID,1003.93,VALID,0,VALID,92.5841,VALID,0,VALID,24.0929,VALID,347,VALID,0.357031,
2009-06-28, 00:22:04,VALID,1003.91,VALID,0,VALID,92.6375,VALID,0.100563,VALID,24.1105,VALID,346,VALID,0.530859,
2009-06-28, 00:23:04,VALID,1003.89,VALID,0,VALID,92.4925,VALID,0.100563,VALID,24.13,VALID,353,VALID,0.634766,
2009-06-28, 00:24:04,VALID,1003.87,VALID,0,VALID,92.3857,VALID,0,VALID,24.1494,VALID,349,VALID,0.417969,
2009-06-28, 00:25:04,VALID,1003.88,VALID,0,VALID,92.2866,VALID,0.100563,VALID,24.1884,VALID,350,VALID,0.601953,
2009-06-28, 00:26:04,VALID,1003.84,VALID,0,VALID,92.1111,VALID,0,VALID,24.2273,VALID,344,VALID,0.413672,
2009-06-28, 00:27:04,VALID,1003.83,VALID,0,VALID,91.9204,VALID,0,VALID,24.2875,VALID,355,VALID,0.627344,
2009-06-28, 00:28:04,VALID,1003.81,VALID,0,VALID,91.6991,VALID,0,VALID,24.3265,VALID,350,VALID,0.617578,
2009-06-28, 00:29:04,VALID,1003.79,VALID,0,VALID,91.4245,VALID,0,VALID,24.4043,VALID,346,VALID,0.610937,
2009-06-28, 00:30:04,VALID,1003.76,VALID,0,VALID,91.1117,VALID,0,VALID,24.4433,VALID,334,VALID,0.792188,
2009-06-28, 00:31:04,VALID,1003.74,VALID,0,VALID,90.8905,VALID,0,VALID,24.4822,VALID,351,VALID,0.587109,
2009-06-28, 00:32:04,VALID,1003.74,VALID,0,VALID,90.6998,VALID,0,VALID,24.5017,VALID,351,VALID,0.357031,
2009-06-28, 00:33:04,VALID,1003.76,VALID,0,VALID,90.6006,VALID,0,VALID,24.5212,VALID,344,VALID,0.489453,
2009-06-28, 00:34:04,VALID,1003.78,VALID,0,VALID,90.4938,VALID,0,VALID,24.5406,VALID,344,VALID,0.251563,
2009-06-28, 00:35:04,VALID,1003.78,VALID,0,VALID,90.387,VALID,0,VALID,24.5406,VALID,344,VALID,0.421484,
2009-06-28, 00:36:04,VALID,1003.78,VALID,0,VALID,90.2954,VALID,0,VALID,24.5601,VALID,344,VALID,0.357031,
2009-06-28, 00:37:04,VALID,1003.74,VALID,0,VALID,90.2191,VALID,0,VALID,24.5601,VALID,344,VALID,0.283984,
2009-06-28, 00:38:04,VALID,1003.76,VALID,0,VALID,90.1352,VALID,0,VALID,24.5601,VALID,344,VALID,0.457031,
2009-06-28, 00:39:04,VALID,1003.72,VALID,0,VALID,90.0437,VALID,0,VALID,24.5796,VALID,355,VALID,0.684766,
2009-06-28, 00:40:04,VALID,1003.7,VALID,0,VALID,89.9369,VALID,0,VALID,24.5777,VALID,351,VALID,0.791016,
2009-06-28, 00:41:04,VALID,1003.71,VALID,0,VALID,89.7233,VALID,0,VALID,24.6185,VALID,349,VALID,0.387109,
2009-06-28, 00:42:04,VALID,1003.68,VALID,0,VALID,89.5554,VALID,0.100563,VALID,24.6361,VALID,353,VALID,0.596484,
2009-06-28, 00:43:04,VALID,1003.65,VALID,0,VALID,89.441,VALID,0,VALID,24.6361,VALID,345,VALID,0.588672,
2009-06-28, 00:44:04,VALID,1003.62,VALID,0,VALID,89.2426,VALID,0,VALID,24.675,VALID,14,VALID,1.16172,
2009-06-28, 00:45:04,VALID,1003.61,VALID,0,VALID,88.9527,VALID,0,VALID,24.714,VALID,345,VALID,0.63125,
2009-06-28, 00:46:04,VALID,1003.56,VALID,0,VALID,88.6476,VALID,0.100563,VALID,24.7529,VALID,359,VALID,1.36406,
2009-06-28, 00:47:04,VALID,1003.57,VALID,0,VALID,88.3653,VALID,0,VALID,24.8327,VALID,357,VALID,0.599219,
2009-06-28, 00:48:04,VALID,1003.51,VALID,0,VALID,88.1746,VALID,0,VALID,24.8308,VALID,353,VALID,1.02617,
2009-06-28, 00:49:04,VALID,1003.5,VALID,0,VALID,88.0144,VALID,0.100563,VALID,24.8289,VALID,347,VALID,1.54023,
2009-06-28, 00:50:04,VALID,1003.44,VALID,0,VALID,87.755,VALID,0,VALID,24.9087,VALID,353,VALID,0.833203,
2009-06-28, 00:51:04,VALID,1003.43,VALID,0,VALID,87.5414,VALID,0,VALID,24.9282,VALID,353,VALID,0.815625,
2009-06-28, 00:52:04,VALID,1003.39,VALID,0,VALID,87.4804,VALID,0,VALID,24.9495,VALID,350,VALID,0.581641,
2009-06-28, 00:53:04,VALID,1003.4,VALID,0,VALID,87.4499,VALID,0,VALID,24.9476,VALID,349,VALID,0.457812,
2009-06-28, 00:54:04,VALID,1003.38,VALID,0,VALID,87.4651,VALID,0,VALID,24.9282,VALID,354,VALID,1.0207,
2009-06-28, 00:55:04,VALID,1003.39,VALID,0,VALID,87.4956,VALID,0,VALID,24.9282,VALID,353,VALID,0.6625,
2009-06-28, 00:56:04,VALID,1003.38,VALID,0,VALID,87.488,VALID,0.100563,VALID,24.9282,VALID,340,VALID,0.5375,
2009-06-28, 00:57:04,VALID,1003.32,VALID,0,VALID,87.549,VALID,0,VALID,24.9106,VALID,353,VALID,0.810547,
2009-06-28, 00:58:04,VALID,1003.32,VALID,0,VALID,87.5872,VALID,0,VALID,24.8911,VALID,339,VALID,1.18672,
2009-06-28, 00:59:04,VALID,1003.29,VALID,0,VALID,87.488,VALID,0,VALID,24.93,VALID,352,VALID,1.43242,
2009-06-28, 01:00:04,VALID,1003.25,VALID,0,VALID,87.3507,VALID,0,VALID,24.9495,VALID,351,VALID,0.728125,
2009-06-28, 01:01:04,VALID,1003.23,VALID,0,VALID,87.3202,VALID,0,VALID,24.9495,VALID,344,VALID,0.707031,
2009-06-28, 01:02:04,VALID,1003.22,VALID,0,VALID,87.3659,VALID,0,VALID,24.93,VALID,351,VALID,0.568359,
2009-06-28, 01:03:04,VALID,1003.22,VALID,0,VALID,87.5109,VALID,0,VALID,24.9106,VALID,2,VALID,0.607422,
2009-06-28, 01:04:04,VALID,1003.26,VALID,0,VALID,87.6482,VALID,0,VALID,24.8911,VALID,337,VALID,0.747656,
2009-06-28, 01:05:04,VALID,1003.22,VALID,0,VALID,87.7016,VALID,0,VALID,24.8716,VALID,344,VALID,0.471094,
2009-06-28, 01:06:04,VALID,1003.26,VALID,0,VALID,87.755,VALID,0,VALID,24.8522,VALID,341,VALID,0.980469,
2009-06-28, 01:07:04,VALID,1003.25,VALID,0,VALID,87.816,VALID,0,VALID,24.8716,VALID,342,VALID,0.766016,
2009-06-28, 01:08:04,VALID,1003.24,VALID,0,VALID,87.7855,VALID,0,VALID,24.8716,VALID,348,VALID,0.658203,
2009-06-28, 01:09:04,VALID,1003.22,VALID,0,VALID,87.8084,VALID,0,VALID,24.8716,VALID,339,VALID,0.698438,
2009-06-28, 01:10:04,VALID,1003.22,VALID,0,VALID,87.8237,VALID,0,VALID,24.8522,VALID,348,VALID,0.596094,
2009-06-28, 01:11:04,VALID,1003.19,VALID,0,VALID,87.8923,VALID,0,VALID,24.8327,VALID,250,VALID,0.291797,
2009-06-28, 01:12:04,VALID,1003.15,VALID,0,VALID,87.9534,VALID,0,VALID,24.8522,VALID,346,VALID,1.20586,
2009-06-28, 01:13:04,VALID,1003.15,VALID,0,VALID,87.9152,VALID,0,VALID,24.8522,VALID,351,VALID,0.621875,
2009-06-28, 01:14:04,VALID,1003.14,VALID,0,VALID,87.8694,VALID,0,VALID,24.8716,VALID,331,VALID,0.663672,
2009-06-28, 01:15:04,VALID,1003.11,VALID,0,VALID,87.9305,VALID,0,VALID,24.8327,VALID,317,VALID,0.160156,
2009-06-28, 01:16:04,VALID,1003.13,VALID,0,VALID,88.0144,VALID,0,VALID,24.8327,VALID,358,VALID,0.456641,
2009-06-28, 01:17:04,VALID,1003.14,VALID,0,VALID,88.1059,VALID,0,VALID,24.8327,VALID,344,VALID,0.831641,
2009-06-28, 01:18:04,VALID,1003.12,VALID,0,VALID,88.1517,VALID,0,VALID,24.8132,VALID,343,VALID,0.185937,
2009-06-28, 01:19:04,VALID,1003.13,VALID,0,VALID,88.228,VALID,0,VALID,24.7937,VALID,288,VALID,0.297266,
2009-06-28, 01:20:04,VALID,1003.11,VALID,0,VALID,88.2814,VALID,0,VALID,24.7937,VALID,272,VALID,0.484375,
2009-06-28, 01:21:04,VALID,1003.09,VALID,0,VALID,88.3958,VALID,0,VALID,24.7548,VALID,292,VALID,1.1125,
2009-06-28, 01:22:04,VALID,1003.09,VALID,0,VALID,88.4569,VALID,0,VALID,24.7548,VALID,294,VALID,0.760547,
2009-06-28, 01:23:04,VALID,1003.13,VALID,0,VALID,88.4492,VALID,0,VALID,24.7548,VALID,303,VALID,0.191406,
2009-06-28, 01:24:04,VALID,1003.14,VALID,0,VALID,88.4874,VALID,0,VALID,24.7353,VALID,303,VALID,0.121484,
2009-06-28, 01:25:04,VALID,1003.17,VALID,0,VALID,88.6018,VALID,0,VALID,24.7159,VALID,343,VALID,0.795313,
2009-06-28, 01:26:04,VALID,1003.19,VALID,0,VALID,88.7239,VALID,0,VALID,24.6769,VALID,351,VALID,0.598047,
2009-06-28, 01:27:04,VALID,1003.17,VALID,0,VALID,88.8688,VALID,0,VALID,24.6964,VALID,334,VALID,0.497266,
2009-06-28, 01:28:04,VALID,1003.17,VALID,0,VALID,88.9222,VALID,0,VALID,24.6574,VALID,328,VALID,0.728125,
2009-06-28, 01:29:04,VALID,1003.13,VALID,0,VALID,88.9985,VALID,0,VALID,24.6166,VALID,345,VALID,0.407813,
2009-06-28, 01:30:04,VALID,1003.16,VALID,0,VALID,89.1358,VALID,0,VALID,24.6166,VALID,347,VALID,0.522266,
2009-06-28, 01:31:04,VALID,1003.13,VALID,0,VALID,89.2274,VALID,0,VALID,24.5953,VALID,344,VALID,1.3168,
2009-06-28, 01:32:04,VALID,1003.13,VALID,0,VALID,89.0748,VALID,0,VALID,24.6769,VALID,326,VALID,0.832031,
2009-06-28, 01:33:04,VALID,1003.13,VALID,0,VALID,88.8612,VALID,0,VALID,24.6769,VALID,350,VALID,0.808984,
2009-06-28, 01:34:04,VALID,1003.1,VALID,0,VALID,88.7468,VALID,0,VALID,24.6556,VALID,341,VALID,0.615625,
2009-06-28, 01:35:04,VALID,1003.14,VALID,0,VALID,88.8765,VALID,0,VALID,24.6556,VALID,352,VALID,1.03437,
2009-06-28, 01:36:04,VALID,1003.13,VALID,0,VALID,88.9299,VALID,0.100563,VALID,24.6556,VALID,344,VALID,0.651953,
2009-06-28, 01:37:04,VALID,1003.14,VALID,0,VALID,88.9146,VALID,0,VALID,24.6361,VALID,282,VALID,0.296094,
2009-06-28, 01:38:04,VALID,1003.16,VALID,0,VALID,88.907,VALID,0,VALID,24.6361,VALID,282,VALID,0.268359,
2009-06-28, 01:39:04,VALID,1003.17,VALID,0,VALID,88.907,VALID,0,VALID,24.6361,VALID,323,VALID,0.401563,
2009-06-28, 01:40:04,VALID,1003.18,VALID,0,VALID,89.0061,VALID,0,VALID,24.5972,VALID,335,VALID,0.546875,
2009-06-28, 01:41:04,VALID,1003.17,VALID,0,VALID,89.0519,VALID,0,VALID,24.6166,VALID,1,VALID,0.527734,
2009-06-28, 01:42:04,VALID,1003.18,VALID,0,VALID,88.9909,VALID,0,VALID,24.6361,VALID,336,VALID,0.424219,
2009-06-28, 01:43:04,VALID,1003.19,VALID,0,VALID,88.9451,VALID,0,VALID,24.6361,VALID,335,VALID,0.241797,
2009-06-28, 01:44:04,VALID,1003.16,VALID,0,VALID,88.9833,VALID,0,VALID,24.6574,VALID,335,VALID,0.346484,
2009-06-28, 01:45:04,VALID,1003.18,VALID,0,VALID,88.9909,VALID,0,VALID,24.638,VALID,339,VALID,0.351172,
2009-06-28, 01:46:04,VALID,1003.19,VALID,0,VALID,88.968,VALID,0,VALID,24.6166,VALID,339,VALID,0.338281,
2009-06-28, 01:47:04,VALID,1003.19,VALID,0,VALID,89.0061,VALID,0,VALID,24.6166,VALID,339,VALID,0.319141,
2009-06-28, 01:48:04,VALID,1003.23,VALID,0,VALID,89.0672,VALID,0,VALID,24.5972,VALID,339,VALID,0.258203,
2009-06-28, 01:49:04,VALID,1003.23,VALID,0,VALID,89.2274,VALID,0,VALID,24.5582,VALID,339,VALID,0.298047,
2009-06-28, 01:50:04,VALID,1003.23,VALID,0,VALID,89.3037,VALID,0,VALID,24.5193,VALID,339,VALID,0.140234,
2009-06-28, 01:51:04,VALID,1003.24,VALID,0,VALID,89.4715,VALID,0,VALID,24.5017,VALID,339,VALID,0.0257812,
2009-06-28, 01:52:04,VALID,1003.23,VALID,0,VALID,89.6927,VALID,0,VALID,24.4609,VALID,339,VALID,0.0078125,
2009-06-28, 01:53:04,VALID,1003.22,VALID,0,VALID,89.8606,VALID,0,VALID,24.422,VALID,339,VALID,0.0136719,
2009-06-28, 01:54:04,VALID,1003.24,VALID,0,VALID,89.9674,VALID,0,VALID,24.4025,VALID,316,VALID,0.201953,
2009-06-28, 01:55:04,VALID,1003.21,VALID,0,VALID,90.1429,VALID,0,VALID,24.4238,VALID,330,VALID,0.425391,
2009-06-28, 01:56:04,VALID,1003.27,VALID,0,VALID,90.0132,VALID,0,VALID,24.383,VALID,332,VALID,0.35625,
2009-06-28, 01:57:04,VALID,1003.27,VALID,0,VALID,90.12,VALID,0,VALID,24.3459,VALID,332,VALID,0.227734,
2009-06-28, 01:58:04,VALID,1003.27,VALID,0,VALID,90.3259,VALID,0,VALID,24.307,VALID,331,VALID,0.107813,
2009-06-28, 01:59:04,VALID,1003.3,VALID,0,VALID,90.5167,VALID,0,VALID,24.2681,VALID,332,VALID,0.0398437,
2009-06-28, 02:00:04,VALID,1003.32,VALID,0,VALID,90.6769,VALID,0,VALID,24.2273,VALID,331,VALID,0.121094,
2009-06-28, 02:01:04,VALID,1003.33,VALID,0,VALID,90.8676,VALID,0,VALID,24.2078,VALID,324,VALID,0.286719,
2009-06-28, 02:02:04,VALID,1003.33,VALID,0,VALID,91.0888,VALID,0,VALID,24.2078,VALID,280,VALID,0.170312,
2009-06-28, 02:03:04,VALID,1003.35,VALID,0,VALID,91.1422,VALID,0,VALID,24.1865,VALID,280,VALID,0.244531,
2009-06-28, 02:04:04,VALID,1003.35,VALID,0,VALID,91.1422,VALID,0,VALID,24.2291,VALID,280,VALID,0.221875,
2009-06-28, 02:05:04,VALID,1003.33,VALID,0,VALID,91.2109,VALID,0,VALID,24.2486,VALID,280,VALID,0.294141,
2009-06-28, 02:06:04,VALID,1003.31,VALID,0,VALID,91.1193,VALID,0,VALID,24.2273,VALID,280,VALID,0.327734,
2009-06-28, 02:07:04,VALID,1003.31,VALID,0,VALID,91.0659,VALID,0,VALID,24.2273,VALID,280,VALID,0.0886719,
2009-06-28, 02:08:04,VALID,1003.32,VALID,0,VALID,90.9897,VALID,0,VALID,24.2078,VALID,280,VALID,0.119531,
2009-06-28, 02:09:04,VALID,1003.31,VALID,0,VALID,91.0507,VALID,0,VALID,24.2486,VALID,280,VALID,0,
2009-06-28, 02:10:04,VALID,1003.34,VALID,0,VALID,91.0659,VALID,0,VALID,24.2291,VALID,280,VALID,0.090625,
2009-06-28, 02:11:04,VALID,1003.35,VALID,0,VALID,91.1193,VALID,0,VALID,24.2097,VALID,280,VALID,0.361719,
2009-06-28, 02:12:04,VALID,1003.35,VALID,0,VALID,91.188,VALID,0,VALID,24.1707,VALID,280,VALID,0,
2009-06-28, 02:13:04,VALID,1003.32,VALID,0,VALID,91.1117,VALID,0,VALID,24.1513,VALID,280,VALID,0,
2009-06-28, 02:14:04,VALID,1003.33,VALID,0,VALID,91.0049,VALID,0,VALID,24.1123,VALID,280,VALID,0.065625,
2009-06-28, 02:15:04,VALID,1003.31,VALID,0,VALID,91.2185,VALID,0,VALID,24.0929,VALID,280,VALID,0.187109,
2009-06-28, 02:16:04,VALID,1003.32,VALID,0,VALID,91.2796,VALID,0,VALID,24.0734,VALID,280,VALID,0.075,
2009-06-28, 02:17:04,VALID,1003.3,VALID,0,VALID,91.3864,VALID,0,VALID,24.0752,VALID,280,VALID,0.0597656,
2009-06-28, 02:18:04,VALID,1003.33,VALID,0,VALID,91.3787,VALID,0,VALID,24.0539,VALID,280,VALID,0.384375,
2009-06-28, 02:19:04,VALID,1003.36,VALID,0,VALID,91.3101,VALID,0,VALID,24.0132,VALID,280,VALID,0.0757812,
2009-06-28, 02:20:04,VALID,1003.36,VALID,0,VALID,91.3406,VALID,0,VALID,23.9761,VALID,280,VALID,0,
2009-06-28, 02:21:04,VALID,1003.37,VALID,0,VALID,91.4855,VALID,0,VALID,23.9761,VALID,280,VALID,0.291016,
2009-06-28, 02:22:04,VALID,1003.4,VALID,0,VALID,91.4016,VALID,0,VALID,23.9584,VALID,281,VALID,0.467187,
2009-06-28, 02:23:04,VALID,1003.42,VALID,0,VALID,91.4779,VALID,0,VALID,23.8787,VALID,284,VALID,0.528906,
2009-06-28, 02:24:04,VALID,1003.41,VALID,0,VALID,91.5771,VALID,0,VALID,23.8203,VALID,339,VALID,0.583984,
2009-06-28, 02:25:04,VALID,1003.45,VALID,0,VALID,91.7678,VALID,0,VALID,23.7814,VALID,339,VALID,0.509375,
2009-06-28, 02:26:04,VALID,1003.47,VALID,0,VALID,92.0348,VALID,0,VALID,23.7425,VALID,339,VALID,0.655469,
2009-06-28, 02:27:04,VALID,1003.45,VALID,0,VALID,92.195,VALID,0,VALID,23.7017,VALID,340,VALID,0.376172,
2009-06-28, 02:28:04,VALID,1003.46,VALID,0,VALID,92.3781,VALID,0,VALID,23.6823,VALID,340,VALID,0.336719,
2009-06-28, 02:29:04,VALID,1003.46,VALID,0,VALID,92.4773,VALID,0,VALID,23.6434,VALID,340,VALID,0.330859,
2009-06-28, 02:30:04,VALID,1003.43,VALID,0,VALID,92.546,VALID,0,VALID,23.6044,VALID,340,VALID,0.434375,
2009-06-28, 02:31:04,VALID,1003.46,VALID,0,VALID,92.5993,VALID,0,VALID,23.5655,VALID,340,VALID,0.464453,
2009-06-28, 02:32:04,VALID,1003.46,VALID,0,VALID,92.7062,VALID,0,VALID,23.546,VALID,340,VALID,0.428906,
2009-06-28, 02:33:04,VALID,1003.48,VALID,0,VALID,92.8816,VALID,0,VALID,23.5071,VALID,340,VALID,0.480078,
2009-06-28, 02:34:04,VALID,1003.5,VALID,0,VALID,92.9198,VALID,0,VALID,23.4859,VALID,340,VALID,0.468359,
2009-06-28, 02:35:04,VALID,1003.54,VALID,0,VALID,93.0113,VALID,0.100563,VALID,23.4877,VALID,340,VALID,0.436719,
2009-06-28, 02:36:04,VALID,1003.56,VALID,0,VALID,93.0571,VALID,0,VALID,23.4487,VALID,340,VALID,0.328906,
2009-06-28, 02:37:04,VALID,1003.6,VALID,0,VALID,93.1334,VALID,0,VALID,23.4293,VALID,340,VALID,0.101172,
2009-06-28, 02:38:04,VALID,1003.6,VALID,0,VALID,93.2249,VALID,0,VALID,23.4098,VALID,337,VALID,0.264062,
2009-06-28, 02:39:04,VALID,1003.57,VALID,0,VALID,93.2249,VALID,0.100563,VALID,23.3904,VALID,337,VALID,0.025,
2009-06-28, 02:40:04,VALID,1003.55,VALID,0,VALID,93.3012,VALID,0,VALID,23.3709,VALID,337,VALID,0.235938,
2009-06-28, 02:41:04,VALID,1003.57,VALID,0,VALID,93.3088,VALID,0,VALID,23.332,VALID,337,VALID,0.246484,
2009-06-28, 02:42:04,VALID,1003.55,VALID,0,VALID,93.3241,VALID,0,VALID,23.3532,VALID,337,VALID,0.410156,
2009-06-28, 02:43:04,VALID,1003.56,VALID,0,VALID,93.3851,VALID,0.100563,VALID,23.2524,VALID,360,VALID,0.598047,
2009-06-28, 02:44:04,VALID,1003.54,VALID,0,VALID,93.4614,VALID,0.100563,VALID,23.2931,VALID,12,VALID,0.425781,
2009-06-28, 02:45:04,VALID,1003.54,VALID,0,VALID,93.4767,VALID,0,VALID,23.2541,VALID,12,VALID,0.417969,
2009-06-28, 02:46:04,VALID,1003.52,VALID,0,VALID,93.5758,VALID,0.100563,VALID,23.2329,VALID,13,VALID,0.423828,
2009-06-28, 02:47:04,VALID,1003.53,VALID,0,VALID,93.6674,VALID,0.100563,VALID,23.2134,VALID,13,VALID,0.435547,
2009-06-28, 02:48:04,VALID,1003.53,VALID,0,VALID,93.7437,VALID,0.100563,VALID,23.2347,VALID,13,VALID,0.464063,
2009-06-28, 02:49:04,VALID,1003.52,VALID,0,VALID,93.7361,VALID,0.100563,VALID,23.194,VALID,13,VALID,0.334766,
2009-06-28, 02:50:04,VALID,1003.51,VALID,0,VALID,93.7589,VALID,0.100563,VALID,23.1763,VALID,13,VALID,0.274609,
2009-06-28, 02:51:04,VALID,1003.5,VALID,0,VALID,93.8047,VALID,0.100563,VALID,23.1551,VALID,13,VALID,0.217969,
2009-06-28, 02:52:04,VALID,1003.49,VALID,0,VALID,93.9573,VALID,0.100563,VALID,23.1745,VALID,13,VALID,0.353125,
2009-06-28, 02:53:04,VALID,1003.5,VALID,0,VALID,94.148,VALID,0.100563,VALID,23.2541,VALID,13,VALID,0.408594,
2009-06-28, 02:54:04,VALID,1003.47,VALID,0,VALID,94.1785,VALID,0.100563,VALID,23.2524,VALID,10,VALID,0.489062,
2009-06-28, 02:55:04,VALID,1003.49,VALID,0,VALID,94.1633,VALID,0.100563,VALID,23.2524,VALID,10,VALID,0.421094,
2009-06-28, 02:56:04,VALID,1003.48,VALID,0,VALID,94.1633,VALID,0,VALID,23.2524,VALID,10,VALID,0,
2009-06-28, 02:57:04,VALID,1003.5,VALID,0,VALID,94.1556,VALID,0,VALID,23.2754,VALID,10,VALID,0.121875,
2009-06-28, 02:58:04,VALID,1003.5,VALID,0,VALID,94.1251,VALID,0,VALID,23.2948,VALID,10,VALID,0,
2009-06-28, 02:59:04,VALID,1003.51,VALID,0,VALID,94.1175,VALID,0,VALID,23.2948,VALID,10,VALID,0,
2009-06-28, 03:00:04,VALID,1003.51,VALID,0,VALID,94.1709,VALID,0,VALID,23.2541,VALID,10,VALID,0,
2009-06-28, 03:01:04,VALID,1003.5,VALID,0,VALID,94.1328,VALID,0,VALID,23.2754,VALID,10,VALID,0,
2009-06-28, 03:02:04,VALID,1003.5,VALID,0,VALID,94.148,VALID,0,VALID,23.2736,VALID,10,VALID,0,
2009-06-28, 03:03:04,VALID,1003.51,VALID,0,VALID,94.1709,VALID,0,VALID,23.2541,VALID,10,VALID,0,
2009-06-28, 03:04:04,VALID,1003.53,VALID,0,VALID,94.1709,VALID,0,VALID,23.2541,VALID,297,VALID,0.320313,
2009-06-28, 03:05:04,VALID,1003.53,VALID,0,VALID,94.2167,VALID,0,VALID,23.2754,VALID,296,VALID,0,
2009-06-28, 03:06:04,VALID,1003.55,VALID,0,VALID,94.2548,VALID,0,VALID,23.3143,VALID,296,VALID,0.155078,
2009-06-28, 03:07:04,VALID,1003.55,VALID,0,VALID,94.2472,VALID,0,VALID,23.2931,VALID,296,VALID,0,
2009-06-28, 03:08:04,VALID,1003.58,VALID,0,VALID,94.1862,VALID,0,VALID,23.3143,VALID,296,VALID,0.146484,
2009-06-28, 03:09:04,VALID,1003.54,VALID,0,VALID,94.1633,VALID,0,VALID,23.2736,VALID,296,VALID,0.266406,
2009-06-28, 03:10:04,VALID,1003.54,VALID,0,VALID,94.2319,VALID,0,VALID,23.2931,VALID,296,VALID,0,
2009-06-28, 03:11:04,VALID,1003.52,VALID,0,VALID,94.2396,VALID,0,VALID,23.3143,VALID,296,VALID,0.040625,
2009-06-28, 03:12:04,VALID,1003.52,VALID,0,VALID,94.1938,VALID,0,VALID,23.3143,VALID,296,VALID,0.25625,
2009-06-28, 03:13:04,VALID,1003.5,VALID,0,VALID,94.1251,VALID,0,VALID,23.2736,VALID,296,VALID,0.339453,
2009-06-28, 03:14:04,VALID,1003.53,VALID,0,VALID,94.1099,VALID,0,VALID,23.2347,VALID,296,VALID,0.398438,
2009-06-28, 03:15:04,VALID,1003.56,VALID,0,VALID,94.087,VALID,0,VALID,23.2347,VALID,296,VALID,0.40625,
2009-06-28, 03:16:04,VALID,1003.53,VALID,0,VALID,94.0946,VALID,0,VALID,23.2152,VALID,299,VALID,0.429297,
2009-06-28, 03:17:04,VALID,1003.52,VALID,0,VALID,94.2167,VALID,0,VALID,23.2364,VALID,323,VALID,0.471875,
2009-06-28, 03:18:04,VALID,1003.57,VALID,0,VALID,94.2396,VALID,0,VALID,23.2347,VALID,333,VALID,0.378906,
2009-06-28, 03:19:04,VALID,1003.57,VALID,0,VALID,94.2853,VALID,0,VALID,23.2754,VALID,333,VALID,0.110937,
2009-06-28, 03:20:04,VALID,1003.56,VALID,0,VALID,94.3311,VALID,0,VALID,23.2736,VALID,333,VALID,0.034375,
2009-06-28, 03:21:04,VALID,1003.56,VALID,0,VALID,94.3311,VALID,0,VALID,23.2736,VALID,333,VALID,0.0617188,
2009-06-28, 03:22:04,VALID,1003.57,VALID,0,VALID,94.3616,VALID,0,VALID,23.3337,VALID,333,VALID,0.167969,
2009-06-28, 03:23:04,VALID,1003.55,VALID,0,VALID,94.4074,VALID,0,VALID,23.3532,VALID,333,VALID,0.00703125,
2009-06-28, 03:24:04,VALID,1003.58,VALID,0,VALID,94.4074,VALID,0,VALID,23.3727,VALID,333,VALID,0.103906,
2009-06-28, 03:25:04,VALID,1003.56,VALID,0,VALID,94.4303,VALID,0,VALID,23.3921,VALID,335,VALID,0.426562,
2009-06-28, 03:26:04,VALID,1003.58,VALID,0,VALID,94.3998,VALID,0,VALID,23.3904,VALID,357,VALID,0.656641,
2009-06-28, 03:27:04,VALID,1003.59,VALID,0,VALID,94.3845,VALID,0,VALID,23.4311,VALID,349,VALID,0.690625,
2009-06-28, 03:28:04,VALID,1003.59,VALID,0,VALID,94.3082,VALID,0,VALID,23.3904,VALID,354,VALID,0.773047,
2009-06-28, 03:29:04,VALID,1003.58,VALID,0,VALID,94.2243,VALID,0,VALID,23.3709,VALID,353,VALID,0.6625,
2009-06-28, 03:30:04,VALID,1003.6,VALID,0,VALID,94.2853,VALID,0,VALID,23.4098,VALID,342,VALID,0.643359,
2009-06-28, 03:31:04,VALID,1003.58,VALID,0,VALID,94.2777,VALID,0,VALID,23.4098,VALID,347,VALID,0.752344,
2009-06-28, 03:32:04,VALID,1003.61,VALID,0,VALID,94.2624,VALID,0,VALID,23.4293,VALID,349,VALID,0.642969,
2009-06-28, 03:33:04,VALID,1003.63,VALID,0,VALID,94.1251,VALID,0,VALID,23.47,VALID,349,VALID,0.614453,
2009-06-28, 03:34:04,VALID,1003.65,VALID,0,VALID,93.9954,VALID,0,VALID,23.4311,VALID,349,VALID,0.698438,
2009-06-28, 03:35:04,VALID,1003.65,VALID,0,VALID,94.0183,VALID,0,VALID,23.4098,VALID,350,VALID,0.616406,
2009-06-28, 03:36:04,VALID,1003.65,VALID,0,VALID,94.1404,VALID,0,VALID,23.4487,VALID,352,VALID,0.605859,
2009-06-28, 03:37:04,VALID,1003.63,VALID,0,VALID,94.1251,VALID,0,VALID,23.5071,VALID,345,VALID,0.74375,
2009-06-28, 03:38:04,VALID,1003.61,VALID,0,VALID,93.9954,VALID,0,VALID,23.5266,VALID,349,VALID,0.665234,
2009-06-28, 03:39:04,VALID,1003.57,VALID,0,VALID,93.9191,VALID,0,VALID,23.5868,VALID,349,VALID,0.586328,
2009-06-28, 03:40:04,VALID,1003.57,VALID,0,VALID,93.7818,VALID,0,VALID,23.6239,VALID,340,VALID,0.681641,
2009-06-28, 03:41:04,VALID,1003.55,VALID,0,VALID,93.5224,VALID,0,VALID,23.6628,VALID,347,VALID,0.785156,
2009-06-28, 03:42:04,VALID,1003.54,VALID,0,VALID,93.347,VALID,0,VALID,23.7017,VALID,351,VALID,0.676953,
2009-06-28, 03:43:04,VALID,1003.51,VALID,0,VALID,93.0113,VALID,0,VALID,23.7796,VALID,348,VALID,0.594922,